W8UFO-13 Weather Reports


Display with metric or nautical units.
time (UTC)temp
F
wind
direction
speed
MPH
gust
MPH
rain 1hr
in
rain 24hr
in
rain mn
in
humidity
%
barometer
mb
20260904022519 82 0.0 0.0 0.00 0.00 0.00 79 1019.3
20260904022016 82 0.0 0.0 0.00 0.00 0.00 79 1019.4
20260904021519 82 0.0 0.0 0.00 0.00 0.00 78 1019.2
20260904021021 82 0.0 0.0 0.00 0.00 0.00 78 1019.1
20260904020517 82 0.0 0.0 0.00 0.00 0.00 78 1019.1
20260904020019 82 0.0 0.0 0.00 0.00 0.00 78 1019.0
20260904015521 82 0.0 0.0 0.00 0.00 0.00 77 1019.0
20260904015021 83 0.0 0.0 0.00 0.00 0.00 77 1019.1
20260904014519 83 0.0 0.0 0.00 0.00 0.00 76 1019.0
20260904014016 83 0.0 0.0 0.00 0.00 0.00 75 1018.9
20260904013517 83 0.0 0.0 0.00 0.00 0.00 75 1018.8
20260904013016 83 0.0 0.0 0.00 0.00 0.00 74 1018.7
20260904012519 83 0.0 0.0 0.00 0.00 0.00 74 1018.5
20260904012016 83 0.0 0.0 0.00 0.00 0.00 74 1018.5
20260904011516 84 0.0 0.0 0.00 0.00 0.00 72 1018.2
20260904011018 84 0.0 0.0 0.00 0.00 0.00 72 1018.2
20260904010516 84 0.0 0.0 0.00 0.00 0.00 71 1018.1
20260904010021 84 0.0 0.0 0.00 0.00 0.00 71 1018.1
20260904005519 85 0.0 0.0 0.00 0.00 0.00 70 1018.0
20260904005019 85 0.0 0.0 0.00 0.00 0.00 69 1018.0
20260904004517 85 0.0 0.0 0.00 0.00 0.00 69 1017.8
20260904004019 85 0.0 0.0 0.00 0.00 0.00 69 1017.7
20260904003519 85 0.0 0.0 0.00 0.00 0.00 69 1017.8
20260904003019 85 0.0 0.0 0.00 0.00 0.00 68 1017.8
20260904002521 86 0.0 0.0 0.00 0.00 0.00 68 1017.8
20260904002017 86 0.0 0.0 0.00 0.00 0.00 67 1017.8
20260904001519 86 0.0 0.0 0.00 0.00 0.00 67 1017.6
20260904001016 87 0.0 0.0 0.00 0.00 0.00 67 1017.4
20260904000521 87 0.0 0.0 0.00 0.00 0.00 66 1017.3
20260904000020 87 0.0 0.0 0.00 0.00 0.00 66 1017.4
20260903235517 88 0.0 0.0 0.00 0.00 0.00 65 1017.4
20260903235021 88 0.0 0.0 0.00 0.00 0.00 65 1017.4
20260903234520 88 0.0 0.0 0.00 0.00 0.00 65 1017.3
20260903234021 89 0.0 0.0 0.00 0.00 0.00 64 1017.3
20260903233519 89 0.0 0.0 0.00 0.00 0.00 64 1017.3
20260903233021 90 0.0 0.0 0.00 0.00 0.00 63 1017.2
20260903232520 90 0.0 0.0 0.00 0.00 0.00 62 1017.2
20260903232016 91 0.0 0.0 0.00 0.00 0.00 61 1017.3
20260903231517 91 0.0 0.0 0.00 0.00 0.00 60 1017.2
20260903231020 92 0.0 0.0 0.00 0.00 0.00 58 1017.3
20260903230516 93 0.0 0.0 0.00 0.00 0.00 57 1017.2
20260903230017 93 0.0 0.0 0.00 0.00 0.00 56 1017.2
20260903225522 94 0.0 1.0 0.00 0.00 0.00 53 1017.2
20260903225020 94 23 1.0 1.0 0.00 0.00 0.00 52 1017.2
20260903224517 94 0.0 2.0 0.00 0.00 0.00 52 1017.2
20260903224022 95 293 1.0 1.0 0.00 0.00 0.00 52 1017.3
20260903223521 95 0 1.0 2.0 0.00 0.00 0.00 52 1017.4
20260903223017 95 0.0 1.0 0.00 0.00 0.00 54 1017.4
20260903222519 95 0.0 0.0 0.00 0.00 0.00 53 1017.4
20260903222017 95 338 1.0 1.0 0.00 0.00 0.00 52 1017.4
20260903221518 95 0.0 1.0 0.00 0.00 0.00 52 1017.4
20260903221020 95 0 1.0 2.0 0.00 0.00 0.00 51 1017.4
20260903220519 96 0.0 1.0 0.00 0.00 0.00 53 1017.4
20260903220017 96 23 2.0 6.0 0.00 0.00 0.00 52 1017.5
20260903215516 96 0 1.0 1.0 0.00 0.00 0.00 52 1017.5
20260903215017 96 293 1.0 2.0 0.00 0.00 0.00 52 1017.5
20260903214522 96 293 1.0 2.0 0.00 0.00 0.00 50 1017.5
20260903214019 96 0 3.0 4.0 0.00 0.00 0.00 52 1017.4
20260903213518 97 23 2.0 5.0 0.00 0.00 0.00 51 1017.5
20260903213021 97 0 1.0 2.0 0.00 0.00 0.00 51 1017.5
20260903212517 97 0.0 1.0 0.00 0.00 0.00 51 1017.5
20260903212016 97 0 1.0 2.0 0.00 0.00 0.00 51 1017.5
20260903211522 98 0 2.0 4.0 0.00 0.00 0.00 51 1017.6
20260903211020 98 338 1.0 1.0 0.00 0.00 0.00 49 1017.8
20260903210516 99 338 1.0 3.0 0.00 0.00 0.00 49 1017.8
20260903210019 98 0.0 1.0 0.00 0.00 0.00 51 1017.8
20260903205519 98 0.0 1.0 0.00 0.00 0.00 49 1018.0
20260903205019 98 248 3.0 4.0 0.00 0.00 0.00 48 1018.0
20260903204520 98 45 1.0 2.0 0.00 0.00 0.00 50 1018.2
20260903204021 97 68 1.0 1.0 0.00 0.00 0.00 49 1018.2
20260903203517 98 270 1.0 2.0 0.00 0.00 0.00 50 1018.2
20260903203021 98 338 3.0 4.0 0.00 0.00 0.00 50 1018.2
20260903202518 98 23 2.0 5.0 0.00 0.00 0.00 50 1018.2
20260903202018 98 23 2.0 2.0 0.00 0.00 0.00 49 1018.3
20260903201517 98 113 2.0 3.0 0.00 0.00 0.00 50 1018.4
20260903201018 98 315 2.0 5.0 0.00 0.00 0.00 50 1018.4
20260903200520 98 0.0 1.0 0.00 0.00 0.00 54 1018.4
20260903200020 98 68 2.0 2.0 0.00 0.00 0.00 51 1018.4
20260903195519 98 315 1.0 3.0 0.00 0.00 0.00 50 1018.6
20260903195019 99 90 1.0 3.0 0.00 0.00 0.00 51 1018.6
20260903194520 99 293 1.0 2.0 0.00 0.00 0.00 51 1018.8
20260903194018 98 68 1.0 1.0 0.00 0.00 0.00 54 1018.8
20260903193521 98 0.0 1.0 0.00 0.00 0.00 53 1018.9
20260903193020 97 338 1.0 2.0 0.00 0.00 0.00 52 1018.9
20260903192516 97 315 1.0 3.0 0.00 0.00 0.00 53 1018.9
20260903192018 98 90 1.0 2.0 0.00 0.00 0.00 53 1019.1
20260903191521 98 0.0 1.0 0.00 0.00 0.00 54 1019.1
20260903191017 98 90 2.0 3.0 0.00 0.00 0.00 53 1019.1
20260903190517 98 68 1.0 3.0 0.00 0.00 0.00 51 1019.1
20260903190019 98 68 1.0 2.0 0.00 0.00 0.00 53 1019.2
20260903185523 97 68 1.0 3.0 0.00 0.00 0.00 52 1019.2
20260903185019 97 68 2.0 3.0 0.00 0.00 0.00 51 1019.3
20260903184518 97 270 1.0 2.0 0.00 0.00 0.00 52 1019.3
20260903184020 97 203 1.0 1.0 0.00 0.00 0.00 52 1019.3
20260903183516 97 338 2.0 3.0 0.00 0.00 0.00 52 1019.5
20260903183019 97 68 2.0 4.0 0.00 0.00 0.00 52 1019.6
20260903182516 98 0 1.0 4.0 0.00 0.00 0.00 52 1019.7
20260903182018 97 338 3.0 4.0 0.00 0.00 0.00 51 1019.7
20260903181516 97 0.0 1.0 0.00 0.00 0.00 57 1019.9
20260903181016 97 0.0 1.0 0.00 0.00 0.00 54 1019.8
20260903180516 97 0.0 1.0 0.00 0.00 0.00 57 1019.9
20260903180019 97 0.0 0.0 0.00 0.00 0.00 56 1020.0
20260903175518 96 68 1.0 3.0 0.00 0.00 0.00 55 1020.0
20260903175020 97 23 1.0 3.0 0.00 0.00 0.00 55 1020.0
20260903174516 96 248 1.0 2.0 0.00 0.00 0.00 56 1020.1
20260903174016 95 158 1.0 2.0 0.00 0.00 0.00 56 1020.2
20260903173518 95 0 4.0 6.0 0.00 0.00 0.00 54 1020.3
20260903173020 95 0 1.0 2.0 0.00 0.00 0.00 57 1020.3
20260903172518 95 90 1.0 2.0 0.00 0.00 0.00 57 1020.5
20260903172021 95 338 2.0 4.0 0.00 0.00 0.00 55 1020.5
20260903171521 96 23 2.0 4.0 0.00 0.00 0.00 57 1020.5
20260903171023 95 0 2.0 4.0 0.00 0.00 0.00 58 1020.7
20260903170519 95 225 1.0 1.0 0.00 0.00 0.00 60 1020.7
20260903170026 94 90 2.0 2.0 0.00 0.00 0.00 62 1020.7
20260903165526 93 225 1.0 2.0 0.00 0.00 0.00 63 1020.8
20260903165020 93 45 2.0 3.0 0.00 0.00 0.00 63 1020.8
20260903164521 94 90 1.0 6.0 0.00 0.00 0.00 63 1020.8
20260903164020 94 68 1.0 2.0 0.00 0.00 0.00 63 1021.0
20260903163519 94 0.0 1.0 0.00 0.00 0.00 65 1021.0
20260903163018 93 0.0 2.0 0.00 0.00 0.00 65 1021.1
20260903162518 92 0.0 2.0 0.00 0.00 0.00 66 1021.0
20260903162020 92 90 1.0 1.0 0.00 0.00 0.00 64 1021.1
20260903161516 92 0.0 0.0 0.00 0.00 0.00 68 1021.2
20260903161016 92 68 3.0 4.0 0.00 0.00 0.00 65 1021.1
20260903160516 91 225 1.0 1.0 0.00 0.00 0.00 69 1021.2
20260903160018 91 225 1.0 2.0 0.00 0.00 0.00 67 1021.2
20260903155517 90 113 1.0 1.0 0.00 0.00 0.00 69 1021.2
20260903155016 90 0.0 1.0 0.00 0.00 0.00 69 1021.3
20260903154519 89 68 1.0 2.0 0.00 0.00 0.00 69 1021.5
20260903154017 89 0.0 1.0 0.00 0.00 0.00 71 1021.4
20260903153516 88 0.0 1.0 0.00 0.00 0.00 72 1021.3
20260903153021 88 0.0 1.0 0.00 0.00 0.00 73 1021.3
20260903152520 87 248 1.0 2.0 0.00 0.00 0.00 77 1021.3
20260903152016 86 0.0 0.0 0.00 0.00 0.00 76 1021.3
20260903151520 86 113 1.0 3.0 0.00 0.00 0.00 76 1021.4
20260903151019 85 45 1.0 2.0 0.00 0.00 0.00 78 1021.3
20260903150517 85 0.0 1.0 0.00 0.00 0.00 77 1021.3
20260903150017 85 68 2.0 4.0 0.00 0.00 0.00 77 1021.4
20260903145519 84 68 1.0 2.0 0.00 0.00 0.00 78 1021.4
20260903145019 84 0.0 1.0 0.00 0.00 0.00 79 1021.4
20260903144521 83 90 1.0 1.0 0.00 0.00 0.00 79 1021.3
20260903144020 83 0.0 1.0 0.00 0.00 0.00 79 1021.4
20260903143518 83 0.0 1.0 0.00 0.00 0.00 80 1021.3
20260903143018 83 0.0 0.0 0.00 0.00 0.00 81 1021.2
20260903142517 82 23 1.0 2.0 0.00 0.00 0.00 82 1021.2
20260903142018 82 68 2.0 5.0 0.00 0.00 0.00 82 1021.3
20260903141520 82 0.0 1.0 0.00 0.00 0.00 82 1021.2
20260903141017 81 0.0 0.0 0.00 0.00 0.00 83 1021.2
20260903140518 81 90 2.0 4.0 0.00 0.00 0.00 82 1021.2
20260903140016 81 0.0 1.0 0.00 0.00 0.00 83 1021.2
20260903135516 81 45 1.0 2.0 0.00 0.00 0.00 84 1021.2
20260903135019 81 68 1.0 3.0 0.00 0.00 0.00 84 1021.3
20260903134518 81 68 2.0 4.0 0.00 0.00 0.00 83 1021.3
20260903134022 81 0.0 1.0 0.00 0.00 0.00 84 1021.4
20260903133517 81 68 1.0 2.0 0.00 0.00 0.00 84 1021.3
20260903133018 81 0.0 1.0 0.00 0.00 0.00 85 1021.3
20260903132515 81 90 2.0 4.0 0.00 0.00 0.00 84 1021.2
20260903132019 80 0 1.0 2.0 0.00 0.00 0.00 85 1021.3
20260903131520 80 0 1.0 4.0 0.00 0.00 0.00 84 1021.4
20260903131022 80 0.0 1.0 0.00 0.00 0.00 86 1021.5
20260903130523 80 0.0 0.0 0.00 0.00 0.00 88 1021.4
20260903130024 78 0.0 1.0 0.00 0.00 0.00 92 1021.4
20260903125524 77 0.0 0.0 0.00 0.00 0.00 96 1021.3
20260903125031 76 0.0 0.0 0.00 0.00 0.00 98 1021.2
20260903124524 74 0.0 0.0 0.00 0.00 0.00 97 1021.2
20260903124016 74 0.0 0.0 0.00 0.00 0.00 97 1021.2
20260903123522 74 0.0 0.0 0.00 0.00 0.00 97 1021.3
20260903123019 73 0.0 0.0 0.00 0.00 0.00 97 1021.3
20260903122517 73 0.0 0.0 0.00 0.00 0.00 97 1021.2
20260903122021 73 0.0 0.0 0.00 0.00 0.00 97 1021.3
20260903121520 73 0.0 0.0 0.00 0.00 0.00 97 1021.2
20260903121018 73 0.0 0.0 0.00 0.00 0.00 97 1021.3
20260903120518 73 0.0 0.0 0.00 0.00 0.00 97 1021.2
20260903120020 73 0.0 0.0 0.00 0.00 0.00 97 1021.1
20260903115516 73 0.0 0.0 0.00 0.00 0.00 97 1020.9
20260903115017 72 0.0 0.0 0.00 0.00 0.00 97 1020.9
20260903114518 72 0.0 0.0 0.00 0.00 0.00 97 1020.9
20260903114017 72 0.0 0.0 0.00 0.00 0.00 97 1020.9
20260903113517 72 0.0 0.0 0.00 0.00 0.00 97 1020.9
20260903113019 72 0.0 0.0 0.00 0.00 0.00 97 1020.9
20260903112519 72 0.0 0.0 0.00 0.00 0.00 97 1020.9
20260903112023 72 0.0 0.0 0.00 0.00 0.00 97 1020.8
20260903111523 72 0.0 0.0 0.00 0.00 0.00 97 1020.8
20260903111021 72 0.0 0.0 0.00 0.00 0.00 97 1020.7
20260903110521 72 0.0 0.0 0.00 0.00 0.00 97 1020.7
20260903110021 72 0.0 0.0 0.00 0.00 0.00 96 1020.6
20260903105521 72 0.0 0.0 0.00 0.00 0.00 97 1020.6
20260903105022 72 0.0 0.0 0.00 0.00 0.00 96 1020.5
20260903104518 72 0.0 0.0 0.00 0.00 0.00 96 1020.3
20260903104017 72 0.0 0.0 0.00 0.00 0.00 96 1020.5
20260903103522 72 0.0 0.0 0.00 0.00 0.00 96 1020.4
20260903103017 73 0.0 0.0 0.00 0.00 0.00 96 1020.2
20260903102520 73 0.0 0.0 0.00 0.00 0.00 96 1020.3
20260903102020 73 0.0 0.0 0.00 0.00 0.00 96 1020.2
20260903101527 73 0.0 0.0 0.00 0.00 0.00 96 1020.1
20260903101029 73 0.0 0.0 0.00 0.00 0.00 96 1020.1
20260903100521 73 0.0 0.0 0.00 0.00 0.00 96 1020.1
20260903100022 73 0.0 0.0 0.00 0.00 0.00 96 1020.2
20260903095522 73 0.0 0.0 0.00 0.00 0.00 96 1020.0
20260903095019 73 0.0 0.0 0.00 0.00 0.00 96 1020.0
20260903094522 73 0.0 0.0 0.00 0.00 0.00 96 1020.1
20260903094018 73 0.0 0.0 0.00 0.00 0.00 95 1019.9
20260903093521 73 0.0 0.0 0.00 0.00 0.00 95 1019.9
20260903093018 73 0.0 0.0 0.00 0.00 0.00 96 1020.0
20260903092522 73 0.0 0.0 0.00 0.00 0.00 95 1020.1
20260903092021 73 0.0 0.0 0.00 0.00 0.00 95 1020.1
20260903091522 73 0.0 0.0 0.00 0.00 0.00 95 1020.2
20260903091019 73 0.0 0.0 0.00 0.00 0.00 95 1020.2
20260903090524 73 0.0 0.0 0.00 0.00 0.00 95 1020.2
20260903090021 73 0.0 0.0 0.00 0.00 0.00 95 1020.3
20260903085522 73 0.0 0.0 0.00 0.00 0.00 95 1020.3
20260903085020 73 0.0 0.0 0.00 0.00 0.00 95 1020.2
20260903084523 74 0.0 0.0 0.00 0.00 0.00 94 1020.2
20260903084020 74 0.0 0.0 0.00 0.00 0.00 94 1020.3
20260903083520 74 0.0 0.0 0.00 0.00 0.00 94 1020.4
20260903083022 74 0.0 0.0 0.00 0.00 0.00 94 1020.3
20260903082519 74 0.0 0.0 0.00 0.00 0.00 94 1020.3
20260903082017 74 0.0 0.0 0.00 0.00 0.00 94 1020.3
20260903081522 74 0.0 0.0 0.00 0.00 0.00 94 1020.4
20260903081017 74 0.0 0.0 0.00 0.00 0.00 94 1020.3
20260903080520 74 0.0 0.0 0.00 0.00 0.00 94 1020.3
20260903080018 74 0.0 0.0 0.00 0.00 0.00 93 1020.2
20260903075520 74 0.0 0.0 0.00 0.00 0.00 93 1020.1
20260903075021 74 0.0 0.0 0.00 0.00 0.00 93 1020.1
20260903074527 74 0.0 0.0 0.00 0.00 0.00 93 1020.0
20260903074027 74 0.0 0.0 0.00 0.00 0.00 93 1020.1
20260903073521 74 0.0 0.0 0.00 0.00 0.00 93 1020.0
20260903073038 75 0.0 0.0 0.00 0.00 0.00 93 1020.0
20260903072522 75 0.0 0.0 0.00 0.00 0.00 92 1020.0
20260903072017 75 0.0 0.0 0.00 0.00 0.00 93 1019.9
20260903071517 75 0.0 0.0 0.00 0.00 0.00 92 1019.9
20260903071017 75 0.0 0.0 0.00 0.00 0.00 92 1019.9
20260903070519 75 0.0 0.0 0.00 0.00 0.00 92 1019.8
20260903070020 75 0.0 0.0 0.00 0.00 0.00 92 1019.8
20260903065517 75 0.0 0.0 0.00 0.00 0.00 92 1020.0
20260903065018 75 0.0 0.0 0.00 0.00 0.00 92 1019.9
20260903064520 75 0.0 0.0 0.00 0.00 0.00 92 1020.1
20260903064018 75 0.0 0.0 0.00 0.00 0.00 92 1020.0
20260903063517 75 0.0 0.0 0.00 0.00 0.00 91 1020.0
20260903063020 75 0.0 0.0 0.00 0.00 0.00 91 1020.1
20260903062519 75 0.0 0.0 0.00 0.00 0.00 91 1020.1
20260903062020 76 0.0 0.0 0.00 0.00 0.00 91 1020.1
20260903061522 76 0.0 0.0 0.00 0.00 0.00 91 1020.1
20260903061017 76 0.0 0.0 0.00 0.00 0.00 91 1020.2
20260903060518 76 0.0 0.0 0.00 0.00 0.00 90 1020.2
20260903060020 76 0.0 0.0 0.00 0.00 0.00 90 1020.2
20260903055522 76 0.0 0.0 0.00 0.00 0.00 90 1020.2
20260903055018 76 0.0 0.0 0.00 0.00 0.00 90 1020.3
20260903054519 76 0.0 0.0 0.00 0.00 0.00 90 1020.2
20260903054021 76 0.0 0.0 0.00 0.00 0.00 90 1020.2
20260903053517 76 0.0 0.0 0.00 0.00 0.00 90 1020.1
20260903053023 76 0.0 0.0 0.00 0.00 0.00 90 1020.2
20260903052517 76 0.0 0.0 0.00 0.00 0.00 89 1020.3
20260903052022 77 0.0 0.0 0.00 0.00 0.00 89 1020.3
20260903051518 77 0.0 0.0 0.00 0.00 0.00 89 1020.3
20260903051018 77 0.0 0.0 0.00 0.00 0.00 88 1020.2
20260903050517 77 0.0 0.0 0.00 0.00 0.00 88 1020.3
20260903050020 77 0.0 0.0 0.00 0.00 0.00 88 1020.3
20260903045519 77 0.0 0.0 0.00 0.00 0.00 88 1020.4
20260903045017 77 0.0 0.0 0.00 0.00 0.00 88 1020.4
20260903044522 77 0.0 0.0 0.00 0.00 0.00 88 1020.3
20260903044021 77 0.0 0.0 0.00 0.00 0.00 88 1020.3
20260903043518 77 0.0 0.0 0.00 0.00 0.00 88 1020.3
20260903043020 77 0.0 0.0 0.00 0.00 0.00 87 1020.2
20260903042518 77 0.0 0.0 0.00 0.00 0.00 87 1020.1
20260903042019 77 0.0 0.0 0.00 0.00 0.00 87 1020.2
20260903041520 78 0.0 0.0 0.00 0.00 0.00 87 1020.1
20260903041020 78 0.0 1.0 0.00 0.00 0.00 86 1020.1
20260903040517 78 0.0 0.0 0.00 0.00 0.00 86 1020.1
20260903040020 78 0.0 0.0 0.00 0.00 0.00 86 1020.1
20260903035521 78 0.0 0.0 0.00 0.00 0.00 85 1020.0
20260903035019 78 0.0 0.0 0.00 0.00 0.00 85 1020.1
20260903034518 78 0.0 0.0 0.00 0.00 0.00 85 1019.9
20260903034016 79 0.0 0.0 0.00 0.00 0.00 84 1020.1
20260903033517 79 0.0 0.0 0.00 0.00 0.00 83 1020.1
20260903033019 79 0.0 0.0 0.00 0.00 0.00 83 1020.2
20260903032519 79 0.0 0.0 0.00 0.00 0.00 83 1020.1
20260903032017 79 0.0 0.0 0.00 0.00 0.00 82 1020.2
20260903031518 80 0.0 0.0 0.00 0.00 0.00 82 1020.1
20260903031021 80 0.0 0.0 0.00 0.00 0.00 82 1020.1
20260903030524 80 0.0 0.0 0.00 0.00 0.00 82 1020.2
20260903030016 80 0.0 0.0 0.00 0.00 0.00 81 1020.2
20260903025519 80 0.0 0.0 0.00 0.00 0.00 81 1020.1
20260903025021 80 0.0 0.0 0.00 0.00 0.00 81 1020.2
20260903024520 81 0.0 0.0 0.00 0.00 0.00 80 1020.1
20260903024017 81 0.0 0.0 0.00 0.00 0.00 80 1020.1
20260903023519 81 0.0 0.0 0.00 0.00 0.00 80 1020.1
20260903023020 81 0.0 0.0 0.00 0.00 0.00 80 1020.2